When you browse on this site, cookies collect data to enhance your experience and personalize the content and advertising you see.
Visit our Privacy Policy to learn more. By continuing to use the site, you agree to this use of cookies and data.
  • In Belgien
  • Länderverzeichnis
  • Für 7 Tage
  • Wassertemperatur
  • Wetterkarte
  • Widgets
  • user-avatar
    Anmelden

    Stündliche Wetter Maloe Zagore

    Heute, 19 August, Montag

    Zeit Temperatur Niederschläge Wind Luftdruck Luftfeuchtigkeit
    00:00 +16°C° 0 mm 1 m/S 743 mmHg 99%
    01:00 +16°C° 0 mm 1 m/S 744 mmHg 99%
    02:00 +15°C° 0 mm 0 m/S 744 mmHg 99%
    03:00 +15°C° 0 mm 0 m/S 744 mmHg 99%
    04:00 +16°C° 0 mm 1 m/S 744 mmHg 99%
    05:00 +16°C° 0 mm 1 m/S 744 mmHg 99%
    06:00 +16°C° 0 mm 1 m/S 744 mmHg 98%
    07:00 +18°C° 0 mm 1 m/S 745 mmHg 97%
    08:00 +18°C° 0 mm 1 m/S 745 mmHg 96%
    09:00 +19°C° 0.1 mm 1 m/S 745 mmHg 94%
    10:00 +18°C° 0.1 mm 2 m/S 746 mmHg 92%
    11:00 +19°C° 0.1 mm 2 m/S 746 mmHg 91%
    12:00 +19°C° 0.1 mm 2 m/S 746 mmHg 86%
    13:00 +20°C° 0.1 mm 2 m/S 746 mmHg 82%
    14:00 +21°C° 0.1 mm 2 m/S 746 mmHg 77%
    15:00 +21°C° 0 mm 2 m/S 746 mmHg 77%
    16:00 +21°C° 0 mm 2 m/S 746 mmHg 76%
    17:00 +21°C° 0 mm 2 m/S 747 mmHg 75%
    18:00 +20°C° 0 mm 2 m/S 747 mmHg 82%
    19:00 +18°C° 0 mm 2 m/S 747 mmHg 89%
    20:00 +16°C° 0 mm 2 m/S 747 mmHg 96%
    21:00 +16°C° 0 mm 2 m/S 747 mmHg 96%
    22:00 +16°C° 0 mm 2 m/S 747 mmHg 96%
    23:00 +16°C° 0 mm 2 m/S 747 mmHg 96%

    Morgen, 20 August, Dienstag

    Zeit Temperatur Niederschläge Wind Luftdruck Luftfeuchtigkeit
    00:00 +16°C° 0 mm 2 m/S 747 mmHg 96%
    01:00 +16°C° 0 mm 2 m/S 747 mmHg 97%
    02:00 +16°C° 0 mm 2 m/S 747 mmHg 97%
    03:00 +16°C° 0 mm 2 m/S 748 mmHg 98%
    04:00 +16°C° 0 mm 2 m/S 748 mmHg 98%
    05:00 +16°C° 0 mm 2 m/S 748 mmHg 98%
    06:00 +17°C° 0 mm 2 m/S 748 mmHg 96%
    07:00 +19°C° 0 mm 2 m/S 748 mmHg 93%
    08:00 +20°C° 0 mm 2 m/S 749 mmHg 90%
    09:00 +21°C° 0 mm 2 m/S 749 mmHg 87%
    10:00 +21°C° 0 mm 2 m/S 749 mmHg 84%
    11:00 +23°C° 0 mm 2 m/S 749 mmHg 81%
    12:00 +23°C° 0 mm 2 m/S 749 mmHg 80%
    13:00 +24°C° 0 mm 2 m/S 750 mmHg 78%
    14:00 +24°C° 0 mm 2 m/S 750 mmHg 77%
    15:00 +23°C° 0.3 mm 1 m/S 750 mmHg 83%
    16:00 +22°C° 0.3 mm 1 m/S 750 mmHg 88%
    17:00 +20°C° 0.3 mm 1 m/S 750 mmHg 94%
    18:00 +20°C° 0 mm 1 m/S 750 mmHg 94%
    19:00 +19°C° 0 mm 1 m/S 750 mmHg 95%
    20:00 +16°C° 0 mm 0 m/S 751 mmHg 95%
    21:00 +16°C° 0 mm 1 m/S 751 mmHg 95%
    22:00 +16°C° 0 mm 1 m/S 751 mmHg 95%
    23:00 +15°C° 0 mm 1 m/S 751 mmHg 95%

    übermorgen, 21 August, Mittwoch

    Zeit Temperatur Niederschläge Wind Luftdruck Luftfeuchtigkeit
    00:00 +15°C° 0 mm 1 m/S 751 mmHg 95%
    01:00 +15°C° 0 mm 1 m/S 752 mmHg 95%
    02:00 +14°C° 0 mm 1 m/S 752 mmHg 95%
    03:00 +14°C° 0 mm 1 m/S 752 mmHg 95%
    04:00 +13°C° 0 mm 0 m/S 752 mmHg 95%
    05:00 +13°C° 0 mm 0 m/S 752 mmHg 95%
    06:00 +15°C° 0 mm 0 m/S 752 mmHg 91%
    07:00 +18°C° 0 mm 1 m/S 752 mmHg 87%
    08:00 +20°C° 0 mm 1 m/S 753 mmHg 84%
    09:00 +21°C° 0 mm 1 m/S 753 mmHg 78%
    10:00 +22°C° 0 mm 1 m/S 753 mmHg 72%
    11:00 +24°C° 0 mm 1 m/S 753 mmHg 67%
    12:00 +24°C° 0 mm 1 m/S 752 mmHg 67%
    13:00 +24°C° 0 mm 1 m/S 752 mmHg 68%
    14:00 +24°C° 0 mm 1 m/S 752 mmHg 69%
    15:00 +23°C° 0.3 mm 1 m/S 751 mmHg 75%
    16:00 +22°C° 0.3 mm 1 m/S 751 mmHg 82%
    17:00 +21°C° 0.3 mm 1 m/S 751 mmHg 88%
    18:00 +21°C° 1.2 mm 1 m/S 750 mmHg 92%
    19:00 +20°C° 1.2 mm 1 m/S 750 mmHg 95%
    20:00 +20°C° 1.2 mm 1 m/S 750 mmHg 98%
    21:00 +19°C° 0.4 mm 1 m/S 750 mmHg 98%
    22:00 +19°C° 0.4 mm 1 m/S 749 mmHg 99%
    23:00 +19°C° 0.4 mm 1 m/S 749 mmHg 99%

    22 August, Donnerstag

    Zeit Temperatur Niederschläge Wind Luftdruck Luftfeuchtigkeit
    00:00 +19°C° 0.9 mm 1 m/S 749 mmHg 99%
    01:00 +19°C° 0.9 mm 1 m/S 749 mmHg 99%
    02:00 +19°C° 0.9 mm 1 m/S 749 mmHg 99%
    03:00 +19°C° 1.7 mm 1 m/S 748 mmHg 99%
    04:00 +19°C° 1.7 mm 1 m/S 748 mmHg 99%
    05:00 +19°C° 1.7 mm 1 m/S 748 mmHg 99%
    06:00 +17°C° 0.2 mm 2 m/S 748 mmHg 97%
    07:00 +17°C° 0.2 mm 3 m/S 749 mmHg 96%
    08:00 +16°C° 0.2 mm 3 m/S 749 mmHg 95%
    09:00 +16°C° 0.1 mm 3 m/S 749 mmHg 93%
    10:00 +17°C° 0.1 mm 3 m/S 750 mmHg 91%
    11:00 +17°C° 0.1 mm 3 m/S 750 mmHg 88%
    12:00 +18°C° 0 mm 3 m/S 750 mmHg 85%
    13:00 +18°C° 0 mm 2 m/S 750 mmHg 81%
    14:00 +19°C° 0 mm 2 m/S 750 mmHg 77%
    15:00 +19°C° 0 mm 2 m/S 750 mmHg 76%
    16:00 +21°C° 0 mm 1 m/S 751 mmHg 74%
    17:00 +21°C° 0 mm 1 m/S 751 mmHg 73%
    18:00 +19°C° 0 mm 1 m/S 751 mmHg 79%
    19:00 +18°C° 0 mm 1 m/S 751 mmHg 85%
    20:00 +15°C° 0 mm 1 m/S 751 mmHg 91%
    21:00 +14°C° 0 mm 1 m/S 751 mmHg 91%
    22:00 +14°C° 0 mm 1 m/S 752 mmHg 92%
    23:00 +13°C° 0 mm 1 m/S 752 mmHg 93%

    23 August, Freitag

    Zeit Temperatur Niederschläge Wind Luftdruck Luftfeuchtigkeit
    00:00 +13°C° 0 mm 1 m/S 752 mmHg 92%
    01:00 +12°C° 0 mm 1 m/S 752 mmHg 91%
    02:00 +11°C° 0 mm 1 m/S 752 mmHg 91%
    03:00 +11°C° 0 mm 1 m/S 752 mmHg 90%
    04:00 +11°C° 0 mm 1 m/S 752 mmHg 89%
    05:00 +11°C° 0 mm 1 m/S 752 mmHg 88%
    06:00 +13°C° 0 mm 1 m/S 753 mmHg 82%
    07:00 +15°C° 0 mm 1 m/S 753 mmHg 76%
    08:00 +16°C° 0 mm 1 m/S 753 mmHg 69%
    09:00 +18°C° 0 mm 2 m/S 753 mmHg 65%
    10:00 +19°C° 0 mm 2 m/S 753 mmHg 61%
    11:00 +20°C° 0 mm 2 m/S 753 mmHg 58%
    12:00 +20°C° 0.1 mm 2 m/S 753 mmHg 57%
    13:00 +21°C° 0.1 mm 2 m/S 752 mmHg 57%
    14:00 +21°C° 0.1 mm 2 m/S 752 mmHg 57%
    15:00 +20°C° 0.2 mm 2 m/S 752 mmHg 64%
    16:00 +20°C° 0.2 mm 2 m/S 752 mmHg 71%
    17:00 +20°C° 0.2 mm 1 m/S 752 mmHg 78%
    18:00 +18°C° 0 mm 1 m/S 752 mmHg 82%
    19:00 +15°C° 0 mm 1 m/S 752 mmHg 85%
    20:00 +14°C° 0 mm 1 m/S 752 mmHg 88%
    21:00 +13°C° 0 mm 1 m/S 752 mmHg 89%
    22:00 +12°C° 0 mm 1 m/S 752 mmHg 89%
    23:00 +12°C° 0 mm 1 m/S 753 mmHg 90%

    24 August, Samstag

    Zeit Temperatur Niederschläge Wind Luftdruck Luftfeuchtigkeit
    00:00 +11°C° 0 mm 1 m/S 753 mmHg 90%
    01:00 +11°C° 0 mm 1 m/S 753 mmHg 90%
    02:00 +11°C° 0 mm 1 m/S 753 mmHg 90%
    03:00 +11°C° 0 mm 1 m/S 753 mmHg 90%
    04:00 +10°C° 0 mm 1 m/S 753 mmHg 90%
    05:00 +9°C° 0 mm 2 m/S 753 mmHg 91%
    06:00 +12°C° 0 mm 2 m/S 753 mmHg 85%
    07:00 +14°C° 0 mm 2 m/S 753 mmHg 80%
    08:00 +16°C° 0 mm 2 m/S 753 mmHg 74%
    09:00 +17°C° 0 mm 2 m/S 753 mmHg 73%
    10:00 +17°C° 0 mm 2 m/S 753 mmHg 72%
    11:00 +17°C° 0 mm 2 m/S 753 mmHg 71%
    12:00 +18°C° 0 mm 2 m/S 753 mmHg 69%
    13:00 +19°C° 0 mm 2 m/S 753 mmHg 67%
    14:00 +20°C° 0 mm 2 m/S 753 mmHg 66%
    15:00 +19°C° 0.1 mm 2 m/S 753 mmHg 70%
    16:00 +19°C° 0.1 mm 2 m/S 753 mmHg 74%
    17:00 +19°C° 0.1 mm 2 m/S 753 mmHg 79%
    18:00 +17°C° 0 mm 2 m/S 753 mmHg 84%
    19:00 +16°C° 0 mm 2 m/S 753 mmHg 89%
    20:00 +14°C° 0 mm 2 m/S 753 mmHg 95%
    21:00 +14°C° 0 mm 2 m/S 753 mmHg 95%
    22:00 +14°C° 0 mm 2 m/S 753 mmHg 96%
    23:00 +13°C° 0 mm 2 m/S 753 mmHg 97%
    Mehr zeigen